Content
SEND FEEDBACK

Daily
Averages
Monthly
Summary
Canada

VANCOUVER, BRITISH COLUMBIA


Home > North America > Canada > British Columbia
Elevation: 7 feet     Latitude: 49 11N     Longitude: 123 10W

WEATHER
 
SELECT A DAY
Number of Records: 249,842;   Date Range: 5/15/97 - 9/17/14
 
SHARE

PRINT THIS DATA

[ ← Previous Day ]
WEATHER ALMANAC - JANUARY 24, 2013
[ Next Day → ]
[ °C ]   °F
Weather ElementAverageHighLow
Temperature42 °F44.6 °F (11:15 am)37.4 °F (4:35 am)
Dewpoint37.6 °F39.2 °F (12:55 am)32 °F (3:35 pm)
Humidity84.8 %100 % (7:35 am)61 % (3:35 pm)
Barometer30.09 in30.18 in (5:55 am)29.96 in (10:35 pm)
Wind Speed5.9 mph13.8 mph (11:55 pm)
Wind Gust25.3 mph (11:55 pm)
Weather ElementAverage
Visibility9.6 mi
Wind DirectionSE (140.3 °)

Weather ElementTotal
Precipitation---
Heating Degree Days24 (Base 65)
Averaged from 64 records on January 24, 2013
WEATHER CONDITIONS BREAKOUT
WIND DIRECTION BREAKOUT
WEATHER BY HOUR - JANUARY 24, 2013
[ °C ]   °F
Local TimeTemperatureDewpointHumidityBarometerVisibilityWind DirectionWind SpeedGust SpeedPrecipitationEventsConditions
12:35 AM39.2 °F37.4 °F93 %30.09 in10.0 miSSW (210°)6.9 mphClear
12:55 AM41.0 °F39.2 °F93 %30.10 in10.0 miSSW (200°)6.9 mphClear
1:15 AM39.2 °F37.4 °F93 %30.11 in10.0 miSouth (190°)5.8 mphClear
1:35 AM41.0 °F37.4 °F87 %30.11 in10.0 miSouth (190°)5.8 mphClear
1:55 AM41.0 °F37.4 °F87 %30.12 in10.0 miSouth (190°)5.8 mphClear
2:15 AM39.2 °F37.4 °F93 %30.13 in10.0 miSouth (190°)5.8 mphClear
2:35 AM39.2 °F37.4 °F93 %30.14 in10.0 miSouth (190°)5.8 mphClear
2:55 AM39.2 °F37.4 °F93 %30.15 in10.0 miSouth (190°)5.8 mphClear
3:15 AM39.2 °F37.4 °F93 %30.15 in10.0 miSouth (180°)3.5 mphClear
3:35 AM39.2 °F37.4 °F93 %30.15 in10.0 miSouth (190°)6.9 mphClear
3:55 AM39.2 °F37.4 °F93 %30.15 in10.0 miSouth (180°)4.6 mphClear
4:15 AM39.2 °F37.4 °F93 %30.15 in10.0 miSouth (190°)5.8 mphScattered Clouds
4:35 AM37.4 °F35.6 °F93 %30.15 in10.0 miSouth (190°)3.5 mphScattered Clouds
5:15 AM39.2 °F37.4 °F93 %30.15 in10.0 miSouth (180°)4.6 mphMostly Cloudy
5:35 AM41.0 °F39.2 °F93 %30.17 in10.0 miSouth (190°)8.1 mphOvercast
5:55 AM41.0 °F39.2 °F93 %30.18 in10.0 miSouth (190°)6.9 mphOvercast
6:15 AM41.0 °F39.2 °F93 %30.17 in10.0 miSouth (180°)5.8 mphMostly Cloudy
6:35 AM41.0 °F39.2 °F93 %30.17 in10.0 miSouth (190°)6.9 mphPartly Cloudy
6:55 AM41.0 °F39.2 °F93 %30.17 in10.0 miSouth (190°)5.8 mphScattered Clouds
7:15 AM41.0 °F39.2 °F93 %30.16 in10.0 miSouth (180°)4.6 mphPartly Cloudy
7:35 AM39.2 °F39.2 °F100 %30.16 in10.0 miSSW (200°)6.9 mphPartly Cloudy
7:55 AM39.2 °F37.4 °F93 %30.17 in10.0 miCalmClear
8:15 AM39.2 °F37.4 °F93 %30.16 in9.0 miNorthPartly Cloudy
8:35 AM39.2 °F39.2 °F100 %30.15 in10.0 miSE (130°)3.5 mphScattered Clouds
8:55 AM41.0 °F37.4 °F87 %30.15 in10.0 miNorthMostly Cloudy
9:15 AM41.0 °F37.4 °F87 %30.15 in10.0 miCalmScattered Clouds
9:35 AM42.8 °F37.4 °F81 %30.15 in10.0 miSE (140°)3.5 mphPartly Cloudy
9:55 AM42.8 °F37.4 °F81 %30.15 in10.0 miCalmClear
10:15 AM42.8 °F37.4 °F81 %30.14 in10.0 miSouth (170°)8.1 mphClear
10:35 AM42.8 °F37.4 °F81 %30.15 in10.0 miSSE (160°)4.6 mphPartly Cloudy
10:55 AM42.8 °F37.4 °F81 %30.15 in10.0 miSSE (150°)6.9 mphPartly Cloudy
11:15 AM44.6 °F35.6 °F71 %30.15 in10.0 miSE (130°)6.9 mphClear
11:35 AM44.6 °F37.4 °F76 %30.14 in10.0 miSouth (170°)3.5 mphPartly Cloudy
11:55 AM44.6 °F37.4 °F76 %30.13 in10.0 miCalmMostly Cloudy
12:15 PM44.6 °F37.4 °F76 %30.10 in10.0 miSSE (150°)5.8 mphOvercast
12:35 PM44.6 °F37.4 °F76 %30.09 in10.0 miEast (90°)4.6 mphMostly Cloudy
12:55 PM44.6 °F35.6 °F71 %30.10 in10.0 miCalmScattered Clouds
3:15 PM44.6 °F33.8 °F66 %30.05 in10.0 miSouth (190°)9.2 mphClear
3:35 PM44.6 °F32.0 °F61 %30.05 in10.0 miSSW (200°)4.6 mphPartly Cloudy
3:55 PM44.6 °F32.0 °F61 %30.04 in10.0 miSouth (170°)3.5 mphPartly Cloudy
4:15 PM44.6 °F33.8 °F66 %30.05 in8.0 miCalmRainLight Rain
4:35 PM42.8 °F35.6 °F76 %30.05 in9.0 miCalmRainLight Rain
4:55 PM41.0 °F37.4 °F87 %30.06 in6.0 miCalmRainLight Rain
5:15 PM41.0 °F37.4 °F87 %30.04 in7.0 miNorthRainLight Rain
5:35 PM41.0 °F37.4 °F87 %30.04 in7.0 miESE (110°)3.5 mphRainLight Rain
5:55 PM41.0 °F37.4 °F87 %30.04 in5.0 miCalmRainLight Rain
6:15 PM42.8 °F37.4 °F81 %30.03 in10.0 miSouth (180°)3.5 mphRainLight Rain
6:35 PM42.8 °F37.4 °F81 %30.02 in10.0 miCalmRainLight Rain
6:55 PM42.8 °F37.4 °F81 %30.01 in9.0 miSSE (160°)9.2 mph18.4 mphRainLight Rain
7:15 PM42.8 °F37.4 °F81 %30.00 in7.0 miSSE (160°)11.5 mph20.7 mphRainLight Rain
7:35 PM42.8 °F37.4 °F81 %29.99 in9.0 miSSE (160°)9.2 mph18.4 mphOvercast
7:55 PM42.8 °F37.4 °F81 %29.99 in10.0 miSouth (180°)10.4 mph21.9 mphOvercast
8:15 PM42.8 °F39.2 °F87 %29.99 in10.0 miSouth (180°)9.2 mph19.6 mphOvercast
8:35 PM42.8 °F39.2 °F87 %29.99 in10.0 miSouth (190°)10.4 mphOvercast
8:55 PM42.8 °F39.2 °F87 %29.99 in10.0 miSouth (180°)9.2 mph17.3 mphOvercast
9:15 PM42.8 °F39.2 °F87 %29.99 in10.0 miSouth (170°)6.9 mph19.6 mphOvercast
9:35 PM42.8 °F39.2 °F87 %29.97 in9.0 miSouth (170°)8.1 mph17.3 mphRainLight Rain
9:55 PM44.6 °F39.2 °F81 %29.97 in10.0 miSouth (190°)11.5 mph24.2 mphOvercast
10:15 PM44.6 °F39.2 °F81 %29.97 in10.0 miSouth (180°)11.5 mph18.4 mphOvercast
10:35 PM44.6 °F39.2 °F81 %29.96 in10.0 miSouth (190°)12.7 mph19.6 mphOvercast
10:55 PM44.6 °F39.2 °F81 %29.97 in10.0 miSouth (190°)11.5 mph21.9 mphOvercast
11:15 PM44.6 °F39.2 °F81 %29.98 in10.0 miSouth (190°)12.7 mph21.9 mphRainLight Rain
11:35 PM44.6 °F39.2 °F81 %29.97 in10.0 miSouth (180°)8.1 mph18.4 mphRainLight Rain
11:55 PM44.6 °F39.2 °F81 %29.97 in10.0 miSouth (190°)13.8 mph25.3 mphOvercast
Hourly data recorded from CZBB, located miles away from Vancouver, British Columbia







STORIES FROM OUR PARTNERS